Simultaneous Nadir Overpasses (SNOs) Predictions

Prediction of SNOs between METOP-B and TERRA Satellite Orbit:

Table of predicted SNOs for the next 14.0 days since TLE Epoch: 5/17/2019
Index Date (METOP-B) Time (METOP-B) Lat,Lon (METOP-B) SZA (METOP-B ) Date (TERRA) Time (TERRA) Lat,Lon (TERRA) SZA (TERRA ) Distance(km) Time Diff (sec)
1 05/19/2019 12:13:36 -81.30,-136.35 115.48 05/19/2019 12:14:47 -81.31,-136.30 115.44 1.35 71
2 05/19/2019 13:04:16 81.31, 31.16 64.54 05/19/2019 13:04:14 81.30, 31.10 64.52 1.34 2
3 05/22/2019 07:47:59 -81.30, -69.92 116.06 05/22/2019 07:49:02 -81.31, -69.90 116.02 0.74 63
4 05/22/2019 08:38:38 81.31, 97.95 64.01 05/22/2019 08:38:28 81.31, 97.85 63.99 1.74 10
5 05/25/2019 03:22:22 -81.30, -3.50 116.59 05/25/2019 03:23:17 -81.31, -3.52 116.57 0.38 55
6 05/25/2019 04:13:01 81.31, 164.33 63.47 05/25/2019 04:12:43 81.31, 164.20 63.44 2.12 18
7 05/27/2019 22:56:45 -81.30, 62.89 117.09 05/27/2019 22:57:32 -81.30, 62.84 117.07 0.91 47
8 05/27/2019 23:47:24 81.31,-129.31 62.97 05/27/2019 23:46:58 81.30,-129.47 62.93 2.68 26
9 05/30/2019 18:31:07 -81.30, 129.27 117.54 05/30/2019 18:31:46 -81.30, 129.18 117.53 1.70 39




NCC Satellite Simultaneous Nadir Overpasses (SNOs) Prediction Service
